This demonstration page uses our WeatherBlox Daily Observations layout. Learn more.

Left ArrowRight Arrow

53.62937, 11.41316

Hourly Observations for November 17, 2019

Temp ( °F °C ) Dew Point ( °F °C ) Humidity (%) Winds ( mph kmh ) Pressure ( in mb ) Visibility ( mi km ) Precip ( " mm )
6:50 am 06:50 Mostly Clear 34 1 32 0 93 93 SSE 3 6 29.98 1015 6 9 N/A
7:20 am 07:20 Mostly Clear 34 1 32 0 93 93 SE 5 7 29.98 1015 6 9 N/A
7:50 am 07:50 Mostly Sunny 34 1 32 0 93 93 SSE 5 7 29.98 1015 5 8 N/A
8:20 am 08:20 Mostly Sunny 34 1 32 0 93 93 SSE 3 6 29.98 1015 5 8 N/A
8:50 am 08:50 Mostly Sunny 32 0 32 0 100 100 VRB 2 4 29.98 1015 4 7 N/A
9:20 am 09:20 Mostly Sunny 32 0 30 -1 93 93 VRB 1 2 29.98 1015 4 7 N/A
9:50 am 09:50 Mostly Sunny 34 1 32 0 93 93 VRB 2 4 29.98 1015 4 7 N/A
10:20 am 10:20 Mostly Sunny 34 1 32 0 93 93 VRB 1 2 29.98 1015 4 7 N/A
10:50 am 10:50 Mostly Sunny 36 2 34 1 93 93 ENE 3 6 30.01 1016 5 8 N/A
11:20 am 11:20 Mostly Sunny 37 3 36 2 93 93 VRB 2 4 30.01 1016 5 8 N/A
11:50 am 11:50 Mostly Sunny 37 3 36 2 93 93 NE 3 6 29.98 1015 7 11 N/A
12:20 pm 12:20 Mostly Sunny 39 4 36 2 87 87 ENE 5 7 29.98 1015 7 11 N/A
12:50 pm 12:50 Mostly Sunny 39 4 37 3 93 93 NE 3 6 29.98 1015 7 11 N/A
1:20 pm 13:20 Mostly Sunny 41 5 36 2 81 81 NE 5 7 29.95 1014 7 11 N/A
1:50 pm 13:50 Mostly Sunny 41 5 37 3 87 87 ENE 2 4 29.95 1014 7 11 N/A
2:20 pm 14:20 Mostly Sunny 41 5 37 3 87 87 NNE 2 4 29.95 1014 7 11 N/A
2:50 pm 14:50 Mostly Sunny 41 5 37 3 87 87 NE 5 7 29.92 1013 7 11 N/A
3:20 pm 15:20 Mostly Sunny 41 5 37 3 87 87 NE 6 9 29.92 1013 7 11 N/A
3:50 pm 15:50 Mostly Sunny 41 5 37 3 87 87 NE 8 13 29.92 1013 7 11 N/A
4:20 pm 16:20 Mostly Clear 43 6 37 3 81 81 NE 10 17 29.89 1012 7 11 N/A
4:50 pm 16:50 Mostly Clear 43 6 37 3 81 81 NE 9 15 29.89 1012 7 11 N/A
5:20 pm 17:20 Mostly Clear 43 6 37 3 81 81 NE 10 17 29.89 1012 7 11 N/A
5:50 pm 17:50 Mostly Clear 43 6 37 3 81 81 NE 9 15 29.86 1011 7 11 N/A
6:20 pm 18:20 Mostly Cloudy 43 6 37 3 81 81 NE 10 17 29.86 1011 30 48 N/A
6:50 pm 18:50 Mostly Cloudy 43 6 39 4 87 87 NE 9 15 29.86 1011 30 48 N/A
7:20 pm 19:20 Mostly Cloudy 43 6 39 4 87 87 NE 10 17 29.83 1010 30 48 N/A
7:50 pm 19:50 Mostly Cloudy 45 7 41 5 87 87 NE 9 15 29.86 1011 30 48 N/A

Powered by AerisWeather